Tracking 20037 objects as of 17-Nov-2019
Live streaming from Space Station
objects crossing your sky now

SLOSHSAT

Track SLOSHSAT now!
SLOSHSAT is classified as:


NORAD ID: 28544
Int'l Code: 2005-005C
Perigee: 254.5 km
Apogee: 32,676.0 km
Inclination: 7.1 °
Period: 572.4 minutes
Semi major axis: 22836 km
RCS: 0.5011 m2 (medium)
Launch date: February 12, 2005
Source: European Space Agency (ESA)
Launch site: FRENCH GUIANA (FRGUI)
aabbcc
Your satellite tracking list
Your tracking list is empty




NASA's NSSDC Master Catalog

Two Line Element Set (TLE):
1 28544U 05005C   19320.79124236 +.00003466 +00000-0 +80468-3 0  9990
2 28544 007.0798 072.0713 7098681 157.6403 263.0497 02.51574167128911
Source of the keplerian elements: AFSPC